[[{"header":{"parameterUnit":"m.s-1","parameterCategory":1,"la1":30.2991,"la2":30.254,"lo1":-89.0895,"lo2":-89.0444,"dy":0.0017,"dx":0.0017,"nx":28,"ny":28,"refTime":"2023-09-19T03:00:00:Z","depth":0,"parameterNumber":2,"parameterNumberName":"U-component_of_WINDS"},"data":[0,0,0,0,0,0,0,0,0,0,0,0,0,0,0,0,0,0,0,0,0,0,0,0,0,0,0,0,0,0,0,0,0,0,0,0,0,0,0,0,0,0,0,0,0,0,0,0,0,0,0,0,0,0,0,0,0,0,-3.7298,-3.7299,0,-3.7463,-3.7465,-3.7467,-3.746,-3.7457,-3.7455,-3.7453,-3.7622,-3.7629,-3.7636,0,0,0,0,0,0,0,0,0,0,0,0,0,-3.6976,-3.6982,-3.7297,-3.7299,-3.7302,-3.7463,-3.7465,-3.7467,-3.746,-3.7457,-3.7454,-3.7452,-3.762,-3.7628,-3.7636,0,0,0,0,0,0,0,0,0,0,0,0,0,-3.7126,-3.6984,-3.7297,-3.7317,-3.7321,-3.7462,-3.7465,-3.7468,-3.7461,-3.7457,-3.7454,-3.745,-3.7618,-3.7627,-3.7637,-3.7769,0,0,-3.7668,-3.7672,0,0,0,0,0,0,0,0,-3.7117,-3.7138,-3.7312,-3.7316,-3.732,-3.7437,-3.7414,-3.7569,-3.7461,-3.7408,-3.7453,-3.7449,-3.7564,-3.7578,-3.7617,-3.7777,-3.7784,-3.7669,-3.7675,-3.7679,-3.7682,0,0,0,0,0,0,0,-3.7107,-3.713,-3.7363,-3.7315,-3.732,-3.7318,-3.7336,-3.7443,-3.7503,-3.7412,-3.7412,-3.7432,-3.7565,-3.7607,-3.762,-3.7787,-3.7669,-3.7677,-3.7684,-3.7688,-3.8063,-3.8067,0,0,0,0,0,0,-3.7092,-3.7122,-3.7358,-3.7368,-3.7208,-3.7327,-3.7347,-3.7403,-3.7502,-3.7514,-3.7434,-3.7431,-3.7591,-3.7609,-3.7626,-3.7786,-3.7679,-3.7689,-3.7694,-3.8059,-3.8064,-3.8068,0,0,0,0,0,0,-3.7085,-3.7113,-3.7351,-3.7245,-3.7275,-3.7336,-3.74,-3.7408,-3.745,-3.7519,-3.753,-3.7466,-3.7589,-3.7612,-3.7734,-3.7792,-3.7693,-3.7702,-3.8055,-3.8061,-3.8066,-3.8107,0,0,0,0,0,0,-3.7076,-3.7111,-3.7161,-3.7246,-3.7281,-3.7455,-3.7404,-3.7414,-3.7467,-3.7464,-3.7551,-3.7562,-3.7588,-3.7719,-3.7743,-3.7804,-3.771,-3.805,-3.8057,-3.8064,-3.8101,-3.8114,-3.8125,0,0,0,0,0,-3.7065,-3.7167,-3.7164,-3.7192,-3.7345,-3.7458,-3.7478,-3.7506,-3.7472,-3.7523,-3.7568,-3.756,-3.7782,-3.7731,-3.7759,-3.7823,-3.8046,-3.8055,-3.8064,-3.8095,-3.8111,-3.8125,0,0,0,0,0,0,-3.7087,-3.7178,-3.7176,-3.7309,-3.7376,-3.7457,-3.7522,-3.7522,-3.76,-3.7594,-3.7625,-3.7645,-3.7766,-3.7808,-3.7749,-3.7956,-3.791,-3.7925,-3.7924,-3.794,-3.7952,-3.7938,-3.7718,0,0,0,0,0,-3.7108,-3.7192,-3.7267,-3.7377,-3.7411,-3.7461,-3.7511,-3.7527,-3.7598,-3.7626,-3.7679,-3.7749,-3.7834,-3.789,-3.7972,-3.8108,-3.8126,-3.8166,-3.8178,-3.8187,-3.8199,-3.8273,-3.8291,-3.8098,-3.8098,-3.8097,0,0,-3.7151,-3.7211,-3.7262,-3.7383,-3.7437,-3.7523,-3.7485,-3.7578,-3.7642,-3.764,-3.7757,-3.7799,-3.7879,-3.8007,-3.8067,-3.8045,-3.8257,-3.8199,-3.8206,-3.8213,-3.8284,-3.8302,-3.8318,-3.8104,-3.8103,-3.8102,0,0,-3.7272,-3.7327,-3.7424,-3.7479,-3.7561,-3.7594,-3.7617,-3.7699,-3.7726,-3.7844,-3.7844,-3.7922,-3.8069,-3.8125,-3.8173,-3.8317,-3.8312,-3.8343,-3.8405,-3.8476,-3.8491,-3.8505,-3.8554,-3.8572,-3.8355,-3.8355,-3.8355,0,-3.7315,-3.7445,-3.7474,-3.7567,-3.762,-3.7622,-3.772,-3.7772,-3.7877,-3.7914,-3.7889,-3.8072,-3.8126,-3.8267,-3.8302,-3.8342,-3.8369,-3.8332,-3.8487,-3.8501,-3.8514,-3.8561,-3.858,-3.8358,-3.8358,-3.8357,-3.8357,0,-3.7493,-3.7583,-3.7652,-3.7752,-3.7813,-3.7908,-3.7951,-3.8009,-3.802,-3.8056,-3.8176,-3.8241,-3.8336,-3.8371,-3.8383,-3.8514,-3.8498,-3.848,-3.8433,-3.8535,-3.858,-3.8599,-3.8362,-3.8361,-3.836,-3.836,0,0,-3.7632,-3.7748,-3.7772,-3.7817,-3.7908,-3.7979,-3.8074,-3.8167,-3.8216,-3.8289,-3.8369,-3.8493,-3.8477,-3.8531,-3.855,-3.8613,-3.872,-3.8586,-3.8589,-3.8607,-3.8868,-3.8879,-3.89,-3.8719,-3.8723,-3.8725,-3.886,0,-3.7762,-3.7931,-3.7959,-3.8107,-3.819,-3.8194,-3.8277,-3.8342,-3.8378,-3.8454,-3.8494,-3.8581,-3.8554,-3.8586,-3.8649,-3.8694,-3.8773,-3.8685,-3.8793,-3.8796,-3.877,-3.8924,-3.8937,-3.906,-3.8878,-3.8881,-3.8884,0,-3.7936,-3.8012,-3.8168,-3.8247,-3.8283,-3.8357,-3.8444,-3.8517,-3.859,-3.8612,-3.8673,-3.8684,-3.8783,-3.8735,-3.8871,-3.8811,-3.8857,-3.8886,-3.8892,-3.8901,-3.8844,-3.8935,-3.9101,-3.9118,-3.8912,-3.891,-3.8908,0,-3.8019,-3.8161,-3.8272,-3.8311,-3.8407,-3.8459,-3.8501,-3.8571,-3.8625,-3.8702,-3.8737,-3.8825,-3.8872,-3.894,-3.8974,-3.8935,-3.9108,-3.9062,-3.9128,-3.9127,-3.9162,-3.9159,-3.9335,-3.9196,-3.9196,-3.9195,-3.9195,0,-3.816,-3.8254,-3.8311,-3.8379,-3.8485,-3.8518,-3.8622,-3.8663,-3.8726,-3.8802,-3.8812,-3.8883,-3.8925,-3.9003,-3.9031,-3.9139,-3.9161,-3.9181,-3.9187,-3.9179,-3.9176,-3.9208,-3.92,-3.92,-3.9199,-3.9198,-3.9197,0,-3.827,-3.8312,-3.8433,-3.8514,-3.8536,-3.861,-3.868,-3.8746,-3.8782,-3.8879,-3.8903,-3.896,-3.9052,-3.9094,-3.9208,-3.9226,-3.9349,-3.935,-3.9324,-3.9325,-3.9388,-3.9381,-3.9589,-3.9618,-3.9461,-3.9463,-3.9464,0,-3.8356,-3.8428,-3.8517,-3.8568,-3.8612,-3.8695,-3.8749,-3.8785,-3.8841,-3.8931,-3.8986,-3.9079,-3.9154,-3.9301,-3.9352,-3.944,-3.9441,-3.9509,-3.9454,-3.9444,-3.944,-3.9434,-3.9441,-3.9517,-3.9519,-3.952,-3.9521,0,-3.8503,-3.852,-3.8598,-3.8684,-3.8749,-3.8819,-3.8887,-3.8928,-3.8974,-3.9038,-3.9131,-3.919,-3.9306,-3.9397,-3.9487,-3.9531,-3.9534,-3.9538,-3.9558,-3.9549,-3.953,-3.9539,-3.9348,-3.9533,-3.9532,-3.9531,-3.953,-3.953,-3.8603,-3.8667,-3.8739,-3.8825,-3.888,-3.8943,-3.9009,-3.9054,-3.9132,-3.9229,-3.9245,-3.9345,-3.9417,-3.9539,-3.9586,-3.9665,-3.9648,-3.9677,-3.9684,-3.969,-3.9693,-3.9519,-3.9682,-3.9681,-3.9681,-3.9681,-3.9681,0,-3.8749,-3.8795,-3.8875,-3.8969,-3.9037,-3.9034,-3.9109,-3.9166,-3.9254,-3.9321,-3.9394,-3.9502,-3.959,-3.9649,-3.9739,-3.9791,-3.9794,-3.9813,-3.9808,-3.9818,-3.9703,-3.9676,-3.9808,-3.9808,-3.9808,-3.9808,-3.9808,-3.9808,-3.8833,-3.8941,-3.8966,-3.9102,-3.9148,-3.9245,-3.9288,-3.9346,-3.9399,-3.9519,-3.9592,-3.963,-3.9694,-3.9788,-3.9869,-3.9884,-3.9916,-3.9935,-3.9949,-3.984,-3.9826,-3.9814,-3.9788,-3.9942,-3.9942,-4.0058,-4.0059,-4.0059]},{"header":{"parameterUnit":"m.s-1","parameterCategory":1,"la1":30.2991,"la2":30.254,"lo1":-89.0895,"lo2":-89.0444,"dy":0.0017,"dx":0.0017,"nx":28,"ny":28,"refTime":"2023-09-19T03:00:00:Z","depth":0,"parameterNumber":3,"parameterNumberName":"V-component_of_WINDS"},"data":[0,0,0,0,0,0,0,0,0,0,0,0,0,0,0,0,0,0,0,0,0,0,0,0,0,0,0,0,0,0,0,0,0,0,0,0,0,0,0,0,0,0,0,0,0,0,0,0,0,0,0,0,0,0,0,0,0,0,2.5106,2.5106,0,2.5078,2.5078,2.5077,2.5033,2.5032,2.5031,2.5031,2.5001,2.5001,2.5001,0,0,0,0,0,0,0,0,0,0,0,0,0,2.5122,2.5122,2.5106,2.5106,2.5106,2.5078,2.5078,2.5077,2.5033,2.5032,2.5031,2.503,2.5001,2.5001,2.5001,0,0,0,0,0,0,0,0,0,0,0,0,0,2.5107,2.5122,2.5107,2.508,2.5078,2.5078,2.5078,2.5077,2.5033,2.5032,2.5031,2.503,2.5001,2.5001,2.5001,2.5025,0,0,2.5001,2.5001,0,0,0,0,0,0,0,0,2.5107,2.5106,2.5085,2.5082,2.5079,2.5058,2.5072,2.506,2.5034,2.505,2.503,2.5029,2.5021,2.5019,2.5016,2.5023,2.5022,2.5001,2.5001,2.5001,2.5001,0,0,0,0,0,0,0,2.5109,2.5107,2.5095,2.5084,2.5081,2.507,2.5066,2.507,2.5043,2.5049,2.5045,2.5043,2.5019,2.5017,2.5015,2.5022,2.5001,2.5001,2.5001,2.5001,2.5044,2.5046,0,0,0,0,0,0,2.5114,2.5108,2.5096,2.5094,2.5091,2.5071,2.5067,2.5066,2.5042,2.5038,2.5044,2.5041,2.5017,2.5016,2.5014,2.5038,2.5001,2.5001,2.5001,2.5043,2.5045,2.5046,0,0,0,0,0,0,2.5114,2.5113,2.5097,2.51,2.5097,2.5072,2.5071,2.5066,2.5063,2.5039,2.5034,2.5046,2.5016,2.5014,2.5022,2.5037,2.5001,2.5001,2.5042,2.5044,2.5045,2.5088,0,0,0,0,0,0,2.5115,2.5113,2.5122,2.5101,2.5098,2.5106,2.5072,2.5066,2.5063,2.5059,2.5039,2.5035,2.5015,2.5022,2.5022,2.5036,2.5001,2.504,2.5043,2.5045,2.5085,2.5091,2.5096,0,0,0,0,0,2.5115,2.5136,2.5123,2.5122,2.5108,2.5107,2.5105,2.5081,2.5065,2.5073,2.5057,2.5036,2.5036,2.5023,2.5023,2.5037,2.5039,2.5042,2.5045,2.5083,2.509,2.5096,0,0,0,0,0,0,2.5159,2.5132,2.5118,2.5132,2.5122,2.5099,2.5109,2.509,2.5085,2.5081,2.5053,2.5048,2.5059,2.5049,2.5036,2.5058,2.5034,2.5037,2.5063,2.507,2.5075,2.5076,2.5001,0,0,0,0,0,2.5171,2.5172,2.5149,2.5163,2.5159,2.5135,2.5134,2.5117,2.5105,2.5101,2.5085,2.5075,2.5072,2.5071,2.5068,2.5084,2.5078,2.5094,2.5099,2.5104,2.5106,2.5112,2.5118,2.5055,2.5055,2.5055,0,0,2.5194,2.518,2.5182,2.5172,2.5162,2.5163,2.5132,2.5135,2.5135,2.5101,2.5106,2.5095,2.5082,2.5093,2.5098,2.5085,2.5122,2.5107,2.5111,2.511,2.5115,2.5121,2.5127,2.5057,2.5056,2.5056,0,0,2.5236,2.5227,2.5237,2.5228,2.5213,2.5197,2.52,2.518,2.5171,2.5176,2.515,2.5151,2.5147,2.5138,2.5133,2.5172,2.5151,2.5172,2.52,2.5206,2.5211,2.5215,2.5227,2.5232,2.5174,2.5175,2.5175,0,2.5267,2.5268,2.5244,2.5249,2.5244,2.5214,2.5223,2.5216,2.5201,2.5198,2.5185,2.5179,2.5168,2.5176,2.5186,2.5184,2.5184,2.5173,2.5212,2.5216,2.522,2.523,2.5235,2.5177,2.5177,2.5176,2.5176,0,2.5305,2.5307,2.5317,2.5302,2.53,2.5307,2.5283,2.5283,2.5267,2.5252,2.5258,2.5243,2.5235,2.5237,2.5221,2.5242,2.5235,2.5218,2.5193,2.5228,2.5238,2.5242,2.518,2.518,2.5179,2.5178,0,0,2.5372,2.5346,2.5349,2.5342,2.5324,2.5325,2.533,2.5323,2.5322,2.5314,2.5316,2.5314,2.5298,2.5292,2.5275,2.5281,2.531,2.5263,2.5262,2.527,2.533,2.5341,2.5347,2.5298,2.5298,2.5299,2.533,0,2.5409,2.5417,2.5396,2.5408,2.5408,2.538,2.5384,2.5373,2.536,2.5358,2.5343,2.5341,2.5321,2.5317,2.5322,2.5306,2.5322,2.5304,2.5298,2.5298,2.53,2.5352,2.5364,2.5395,2.5334,2.5335,2.5335,0,2.5453,2.5446,2.5458,2.5439,2.5438,2.5442,2.5433,2.5432,2.5419,2.5409,2.5403,2.5383,2.5386,2.5365,2.5368,2.5356,2.5353,2.5344,2.5345,2.5341,2.5317,2.5347,2.5404,2.5408,2.5342,2.5341,2.5341,0,2.5497,2.5491,2.5497,2.5493,2.5471,2.5474,2.5465,2.5451,2.5448,2.544,2.5437,2.543,2.5426,2.542,2.5399,2.5386,2.5404,2.5381,2.5394,2.5394,2.5397,2.5396,2.5451,2.5399,2.5399,2.5399,2.5399,0,2.5539,2.5547,2.5517,2.5521,2.5529,2.5505,2.5513,2.5501,2.5489,2.5489,2.5465,2.5466,2.5439,2.5437,2.542,2.5424,2.5423,2.5413,2.5408,2.5414,2.5415,2.541,2.5406,2.54,2.54,2.54,2.54,0,2.5589,2.5569,2.5574,2.5553,2.5548,2.5555,2.5536,2.5538,2.5524,2.5525,2.5523,2.5501,2.5496,2.5475,2.5466,2.5455,2.5463,2.5456,2.5467,2.5464,2.5477,2.5475,2.5528,2.5533,2.5481,2.5481,2.5482,0,2.5615,2.5621,2.56,2.5599,2.5591,2.5589,2.5585,2.5562,2.5559,2.5545,2.5548,2.5542,2.5536,2.553,2.5512,2.5505,2.5495,2.5514,2.5493,2.5498,2.5492,2.5491,2.549,2.5517,2.5518,2.5519,2.5519,0,2.5663,2.5653,2.5649,2.5641,2.5637,2.563,2.5621,2.5621,2.5596,2.5594,2.5589,2.5584,2.5574,2.5568,2.5557,2.5547,2.5528,2.5526,2.5528,2.5533,2.5538,2.5533,2.5477,2.5524,2.5524,2.5523,2.5523,2.5523,2.57,2.5703,2.5689,2.5685,2.5676,2.5668,2.5669,2.5655,2.565,2.5641,2.5628,2.5624,2.5611,2.5595,2.5586,2.5583,2.5572,2.5576,2.5576,2.5577,2.5579,2.5541,2.5581,2.5581,2.5581,2.5581,2.558,0,2.5745,2.5735,2.5731,2.572,2.5716,2.57,2.5689,2.5687,2.5684,2.5674,2.5668,2.5662,2.5655,2.5637,2.5629,2.5629,2.562,2.5627,2.5626,2.5623,2.559,2.5588,2.5635,2.5635,2.5635,2.5635,2.5635,2.5635,2.5768,2.5771,2.576,2.5758,2.5748,2.5745,2.574,2.5732,2.5723,2.5718,2.5712,2.5701,2.5686,2.5677,2.567,2.5664,2.5661,2.5671,2.5663,2.5631,2.5626,2.5621,2.5619,2.5671,2.5671,2.5696,2.5696,2.5696]}]]